GW2953 Weather Reports


Display with metric or nautical units.
time (UTC)temp
F
wind
direction
speed
MPH
gust
MPH
rain 1hr
in
rain 24hr
in
rain mn
in
humidity
%
barometer
mb
20260510080209 57 84 2.0 3.0 0.00 0.00 0.00 77 1014.0
20260510075706 57 299 0.0 2.0 0.00 0.00 0.00 75 1014.0
20260510075204 57 291 0.0 2.0 0.00 0.00 0.00 78 1014.1
20260510074701 57 71 3.0 3.0 0.00 0.00 0.00 75 1014.0
20260510074156 57 60 3.0 3.0 0.00 0.00 0.00 75 1013.9
20260510073654 58 117 2.0 2.0 0.00 0.00 0.00 73 1014.0
20260510073149 58 230 0.0 1.0 0.00 0.00 0.00 75 1014.1
20260510072646 58 51 1.0 1.0 0.00 0.00 0.00 74 1014.1
20260510072142 58 242 0.0 2.0 0.00 0.00 0.00 74 1014.0
20260510071638 58 232 0.0 2.0 0.00 0.00 0.00 74 1014.1
20260510071136 59 305 0.0 2.0 0.00 0.00 0.00 73 1014.1
20260510070633 58 354 1.0 3.0 0.00 0.00 0.00 74 1014.0
20260510070131 59 157 0.0 3.0 0.00 0.00 0.00 72 1014.0
20260510065626 59 113 0.0 1.0 0.00 0.00 0.00 75 1014.2
20260510065122 59 262 0.0 2.0 0.00 0.00 0.00 74 1014.2
20260510064618 58 309 0.0 1.0 0.00 0.00 0.00 74 1014.0
20260510064115 59 58 2.0 3.0 0.00 0.00 0.00 73 1014.1
20260510063612 59 217 0.0 2.0 0.00 0.00 0.00 73 1014.1
20260510063109 59 294 2.0 2.0 0.00 0.00 0.00 73 1014.2
20260510062605 59 124 0.0 1.0 0.00 0.00 0.00 72 1014.0
20260510062100 60 0 0.0 2.0 0.00 0.00 0.00 69 1014.0
20260510061552 60 103 1.0 2.0 0.00 0.00 0.00 71 1014.2
20260510061049 60 297 0.0 1.0 0.00 0.00 0.00 70 1014.2
20260510060544 60 320 3.0 4.0 0.00 0.00 0.00 71 1014.1
20260510060041 60 249 2.0 2.0 0.00 0.00 0.00 72 1014.1
20260510055537 60 189 1.0 1.0 0.00 0.00 0.00 71 1014.1
20260510055036 60 55 0.0 2.0 0.00 0.00 0.00 70 1014.0
20260510054531 61 280 1.0 2.0 0.00 0.00 0.00 70 1014.0
20260510054026 61 289 2.0 4.0 0.00 0.00 0.00 69 1014.2
20260510053521 61 40 0.0 2.0 0.00 0.00 0.00 69 1014.2
20260510053019 62 92 2.0 3.0 0.00 0.00 0.00 68 1014.2
20260510052514 62 129 0.0 1.0 0.00 0.00 0.00 67 1014.0
20260510052011 62 104 0.0 1.0 0.00 0.00 0.00 66 1014.1
20260510051506 62 3 0.0 2.0 0.00 0.00 0.00 66 1014.0
20260510051003 62 186 2.0 2.0 0.00 0.00 0.00 67 1014.1
20260510050500 63 265 0.0 3.0 0.00 0.00 0.00 65 1014.0
20260510045957 63 286 2.0 4.0 0.00 0.00 0.00 66 1014.0
20260510045454 63 235 1.0 2.0 0.00 0.00 0.00 65 1013.9
20260510044950 63 104 0.0 1.0 0.00 0.00 0.00 66 1014.0
20260510044447 64 68 2.0 4.0 0.00 0.00 0.00 65 1014.0
20260510043944 64 280 3.0 5.0 0.00 0.00 0.00 63 1013.9
20260510043440 64 238 1.0 1.0 0.00 0.00 0.00 64 1013.8
20260510042939 64 242 0.0 2.0 0.00 0.00 0.00 64 1013.7
20260510042434 64 313 2.0 3.0 0.00 0.00 0.00 62 1013.5
20260510041930 65 124 0.0 1.0 0.00 0.00 0.00 61 1013.5
20260510041428 66 302 1.0 2.0 0.00 0.00 0.00 58 1013.6
20260510040925 66 284 0.0 1.0 0.00 0.00 0.00 59 1013.5
20260510040421 66 275 1.0 2.0 0.00 0.00 0.00 59 1013.5
20260510035916 66 281 1.0 3.0 0.00 0.00 0.00 59 1013.6
20260510035413 66 277 3.0 3.0 0.00 0.00 0.00 58 1013.2
20260510034908 67 205 0.0 1.0 0.00 0.00 0.00 59 1013.4
20260510034407 67 230 0.0 1.0 0.00 0.00 0.00 59 1013.2
20260510033902 68 217 0.0 2.0 0.00 0.00 0.00 57 1013.2
20260510033359 69 275 2.0 2.0 0.00 0.00 0.00 54 1013.2
20260510032856 69 286 1.0 3.0 0.00 0.00 0.00 54 1013.0
20260510032353 69 246 0.0 3.0 0.00 0.00 0.00 53 1013.1
20260510031848 70 37 0.0 2.0 0.00 0.00 0.00 52 1012.9
20260510031344 70 326 1.0 2.0 0.00 0.00 0.00 49 1013.0
20260510030843 71 283 3.0 4.0 0.00 0.00 0.00 49 1012.8
20260510030340 71 272 3.0 4.0 0.00 0.00 0.00 49 1012.6
20260510025838 72 318 3.0 3.0 0.00 0.00 0.00 47 1012.6
20260510025335 72 296 3.0 4.0 0.00 0.00 0.00 47 1012.5
20260510024832 73 281 2.0 5.0 0.00 0.00 0.00 46 1012.8
20260510024329 74 297 0.0 3.0 0.00 0.00 0.00 44 1012.4
20260510023825 75 26 2.0 3.0 0.00 0.00 0.00 41 1012.4
20260510023321 75 269 3.0 6.0 0.00 0.00 0.00 41 1012.3
20260510022819 75 269 5.0 9.0 0.00 0.00 0.00 43 1012.3
20260510022318 75 272 4.0 10.0 0.00 0.00 0.00 44 1012.4
20260510021817 74 306 5.0 8.0 0.00 0.00 0.00 44 1012.3
20260510021315 74 275 5.0 9.0 0.00 0.00 0.00 45 1012.0
20260510020811 75 269 9.0 11.0 0.00 0.00 0.00 45 1012.1
20260510020306 74 254 4.0 10.0 0.00 0.00 0.00 47 1012.2
20260510015802 75 249 5.0 13.0 0.00 0.00 0.00 44 1012.2
20260510015258 75 278 10.0 12.0 0.00 0.00 0.00 42 1012.5
20260510014753 76 261 8.0 12.0 0.00 0.00 0.00 43 1012.2
20260510014251 78 262 9.0 11.0 0.00 0.00 0.00 39 1012.2
20260510013747 80 264 5.0 11.0 0.00 0.00 0.00 36 1012.2
20260510013242 80 264 7.0 11.0 0.00 0.00 0.00 35 1012.2
20260510012737 80 268 8.0 10.0 0.00 0.00 0.00 39 1012.3
20260510012232 80 267 9.0 10.0 0.00 0.00 0.00 36 1012.3
20260510011727 80 253 6.0 9.0 0.00 0.00 0.00 36 1012.3
20260510011222 81 265 7.0 12.0 0.00 0.00 0.00 35 1012.6
20260510010719 81 273 7.0 9.0 0.00 0.00 0.00 37 1012.4
20260510010216 81 274 5.0 9.0 0.00 0.00 0.00 35 1012.2
20260510005713 82 264 6.0 7.0 0.00 0.00 0.00 36 1012.4
20260510005209 83 262 4.0 7.0 0.00 0.00 0.00 40 1012.5
20260510004707 83 263 5.0 7.0 0.00 0.00 0.00 38 1012.6
20260510004204 84 259 5.0 7.0 0.00 0.00 0.00 33 1012.3
20260510003702 84 272 6.0 6.0 0.00 0.00 0.00 35 1012.4
20260510003157 84 263 6.0 7.0 0.00 0.00 0.00 36 1012.4
20260510002652 84 269 5.0 6.0 0.00 0.00 0.00 40 1012.3
20260510002149 85 263 5.0 7.0 0.00 0.00 0.00 38 1012.2
20260510001646 87 264 5.0 6.0 0.00 0.00 0.00 37 1012.5
20260510001145 89 274 3.0 4.0 0.00 0.00 0.00 37 1012.5
20260510000645 89 276 2.0 4.0 0.00 0.00 0.00 21 1012.6
20260510000143 90 262 3.0 3.0 0.00 0.00 0.00 24 1012.6
20260509235639 91 277 1.0 3.0 0.00 0.00 0.00 24 1012.5
20260509235135 90 253 1.0 3.0 0.00 0.00 0.00 29 1012.6
20260509234631 91 238 2.0 2.0 0.00 0.00 0.00 28 1012.5
20260509234129 91 0 0.0 2.0 0.00 0.00 0.00 20 1012.6
20260509233627 90 329 1.0 3.0 0.00 0.00 0.00 23 1012.9
20260509233124 93 49 1.0 3.0 0.00 0.00 0.00 18 1012.8
20260509232620 93 264 2.0 4.0 0.00 0.00 0.00 17 1012.9
20260509232117 91 343 0.0 2.0 0.00 0.00 0.00 18 1012.8
20260509231614 90 198 2.0 4.0 0.00 0.00 0.00 18 1013.0
20260509231112 91 290 2.0 4.0 0.00 0.00 0.00 21 1013.0
20260509230608 91 138 0.0 3.0 0.00 0.00 0.00 19 1013.1
20260509230105 90 233 3.0 5.0 0.00 0.00 0.00 20 1013.1
20260509225601 90 284 0.0 3.0 0.00 0.00 0.00 24 1013.3
20260509225056 91 293 2.0 4.0 0.00 0.00 0.00 18 1012.9
20260509224552 91 227 1.0 3.0 0.00 0.00 0.00 25 1013.2
20260509224049 89 222 4.0 6.0 0.00 0.00 0.00 22 1013.3
20260509223546 90 254 4.0 6.0 0.00 0.00 0.00 19 1013.3
20260509223044 87 107 1.0 6.0 0.00 0.00 0.00 22 1013.3
20260509222539 87 53 3.0 6.0 0.00 0.00 0.00 22 1013.7
20260509222036 89 113 2.0 5.0 0.00 0.00 0.00 28 1013.6
20260509221532 90 347 1.0 2.0 0.00 0.00 0.00 22 1013.4
20260509221027 90 242 3.0 4.0 0.00 0.00 0.00 23 1013.6
20260509220524 90 232 1.0 2.0 0.00 0.00 0.00 23 1013.7
20260509220020 89 241 4.0 4.0 0.00 0.00 0.00 21 1013.6
20260509215515 89 348 2.0 4.0 0.00 0.00 0.00 22 1013.6
20260509215013 88 325 2.0 6.0 0.00 0.00 0.00 24 1013.8
20260509214510 88 272 2.0 4.0 0.00 0.00 0.00 24 1013.8
20260509214007 87 216 3.0 7.0 0.00 0.00 0.00 27 1013.5
20260509213503 86 247 2.0 5.0 0.00 0.00 0.00 23 1013.8
20260509213000 88 176 3.0 5.0 0.00 0.00 0.00 23 1013.8
20260509212457 88 346 0.0 3.0 0.00 0.00 0.00 23 1013.9
20260509211953 87 242 2.0 5.0 0.00 0.00 0.00 24 1013.8
20260509211449 88 113 2.0 3.0 0.00 0.00 0.00 29 1013.8
20260509210945 88 240 2.0 4.0 0.00 0.00 0.00 25 1014.0
20260509210437 87 228 4.0 6.0 0.00 0.00 0.00 22 1014.0
20260509205933 88 217 2.0 4.0 0.00 0.00 0.00 24 1014.2
20260509205428 88 277 1.0 3.0 0.00 0.00 0.00 22 1014.0
20260509204923 87 293 2.0 4.0 0.00 0.00 0.00 24 1014.0
20260509204420 87 176 3.0 5.0 0.00 0.00 0.00 25 1014.1
20260509203917 86 224 2.0 4.0 0.00 0.00 0.00 28 1014.2
20260509203412 86 189 2.0 5.0 0.00 0.00 0.00 25 1014.3
20260509202910 86 184 4.0 5.0 0.00 0.00 0.00 25 1014.1
20260509202406 85 182 3.0 4.0 0.00 0.00 0.00 31 1014.1
20260509201901 86 227 3.0 5.0 0.00 0.00 0.00 26 1014.4
20260509201357 86 194 3.0 6.0 0.00 0.00 0.00 22 1014.3
20260509200854 85 205 2.0 7.0 0.00 0.00 0.00 29 1014.4
20260509200348 84 102 3.0 6.0 0.00 0.00 0.00 28 1014.4
20260509195845 84 63 3.0 6.0 0.00 0.00 0.00 27 1014.5
20260509195340 84 95 3.0 6.0 0.00 0.00 0.00 28 1014.7
20260509194839 84 139 1.0 4.0 0.00 0.00 0.00 36 1014.8
20260509194336 83 132 3.0 4.0 0.00 0.00 0.00 31 1014.7
20260509193832 84 77 3.0 9.0 0.00 0.00 0.00 35 1014.7
20260509193327 84 70 1.0 6.0 0.00 0.00 0.00 36 1014.5
20260509192823 84 124 5.0 7.0 0.00 0.00 0.00 30 1014.5
20260509192319 84 111 2.0 5.0 0.00 0.00 0.00 38 1014.8
20260509191815 84 122 0.0 4.0 0.00 0.00 0.00 32 1014.7
20260509191311 83 161 2.0 7.0 0.00 0.00 0.00 32 1014.8
20260509190806 83 113 0.0 4.0 0.00 0.00 0.00 31 1015.0
20260509190304 82 146 3.0 7.0 0.00 0.00 0.00 34 1014.9
20260509185801 82 87 4.0 6.0 0.00 0.00 0.00 33 1014.9
20260509185257 82 135 4.0 7.0 0.00 0.00 0.00 33 1014.9
20260509184755 83 109 1.0 5.0 0.00 0.00 0.00 33 1015.0
20260509184252 82 50 1.0 4.0 0.00 0.00 0.00 31 1014.8
20260509183749 81 66 3.0 6.0 0.00 0.00 0.00 38 1014.9
20260509183244 82 64 1.0 4.0 0.00 0.00 0.00 33 1015.1
20260509182740 83 181 2.0 5.0 0.00 0.00 0.00 31 1014.9
20260509182238 82 179 0.0 4.0 0.00 0.00 0.00 32 1015.2
20260509181734 81 113 2.0 5.0 0.00 0.00 0.00 38 1015.1
20260509181232 81 41 3.0 4.0 0.00 0.00 0.00 36 1015.2
20260509180729 81 255 2.0 3.0 0.00 0.00 0.00 39 1015.3
20260509180225 80 237 0.0 4.0 0.00 0.00 0.00 35 1015.3
20260509175721 80 195 2.0 3.0 0.00 0.00 0.00 33 1015.4
20260509175218 79 124 1.0 4.0 0.00 0.00 0.00 39 1015.3
20260509174714 80 119 2.0 4.0 0.00 0.00 0.00 49 1015.4
20260509174209 80 79 3.0 4.0 0.00 0.00 0.00 43 1015.4
20260509173706 80 75 2.0 3.0 0.00 0.00 0.00 41 1015.3
20260509173201 81 33 2.0 3.0 0.00 0.00 0.00 42 1015.5
20260509172658 79 89 0.0 3.0 0.00 0.00 0.00 41 1015.4
20260509172154 77 238 0.0 2.0 0.00 0.00 0.00 46 1015.4
20260509171650 78 40 2.0 3.0 0.00 0.00 0.00 46 1015.3
20260509171146 78 89 0.0 3.0 0.00 0.00 0.00 50 1015.5
20260509170643 75 202 1.0 4.0 0.00 0.00 0.00 49 1015.4
20260509170139 75 206 3.0 4.0 0.00 0.00 0.00 51 1015.6
20260509165637 74 120 2.0 3.0 0.00 0.00 0.00 58 1015.6
20260509165133 73 212 0.0 2.0 0.00 0.00 0.00 52 1015.6
20260509164630 73 180 1.0 3.0 0.00 0.00 0.00 51 1015.6
20260509164125 72 352 0.0 5.0 0.00 0.00 0.00 54 1015.7
20260509163623 72 172 3.0 3.0 0.00 0.00 0.00 54 1015.8
20260509163118 73 255 0.0 2.0 0.00 0.00 0.00 52 1015.8
20260509162616 72 187 0.0 3.0 0.00 0.00 0.00 51 1015.9
20260509162112 71 74 3.0 3.0 0.00 0.00 0.00 56 1015.7
20260509161608 69 243 0.0 3.0 0.00 0.00 0.00 57 1015.8
20260509161109 68 100 3.0 5.0 0.00 0.00 0.00 62 1016.0
20260509160605 67 205 1.0 2.0 0.00 0.00 0.00 62 1016.1
20260509160100 68 112 3.0 5.0 0.00 0.00 0.00 62 1016.0
20260509155557 65 127 2.0 3.0 0.00 0.00 0.00 65 1016.1
20260509155053 64 187 1.0 2.0 0.00 0.00 0.00 65 1016.1
20260509154549 63 193 0.0 2.0 0.00 0.00 0.00 65 1016.2
20260509154047 63 224 0.0 2.0 0.00 0.00 0.00 66 1016.4
20260509153543 63 104 1.0 3.0 0.00 0.00 0.00 67 1016.3
20260509153040 62 84 4.0 6.0 0.00 0.00 0.00 70 1016.3
20260509152536 63 91 3.0 4.0 0.00 0.00 0.00 70 1016.5
20260509152034 62 61 0.0 1.0 0.00 0.00 0.00 70 1016.5
20260509151530 62 91 3.0 5.0 0.00 0.00 0.00 70 1016.4
20260509151028 59 322 0.0 1.0 0.00 0.00 0.00 71 1016.5
20260509150525 59 72 3.0 5.0 0.00 0.00 0.00 73 1016.5
20260509150024 58 82 3.0 5.0 0.00 0.00 0.00 75 1016.5
20260509145518 59 69 3.0 4.0 0.00 0.00 0.00 72 1016.7
20260509145013 59 57 1.0 3.0 0.00 0.00 0.00 77 1016.7
20260509144511 57 69 0.0 2.0 0.00 0.00 0.00 80 1016.7
20260509144008 56 60 3.0 5.0 0.00 0.00 0.00 82 1016.7
20260509143505 55 336 1.0 2.0 0.00 0.00 0.00 81 1016.7
20260509143003 55 122 2.0 3.0 0.00 0.00 0.00 81 1016.7
20260509142458 56 49 3.0 5.0 0.00 0.00 0.00 82 1016.8
20260509141954 54 83 0.0 3.0 0.00 0.00 0.00 84 1016.7
20260509141450 53 359 0.0 5.0 0.00 0.00 0.00 86 1016.8
20260509140948 52 131 2.0 4.0 0.00 0.00 0.00 87 1016.7
20260509140443 50 212 2.0 4.0 0.00 0.00 0.00 89 1016.5
20260509135942 50 284 1.0 2.0 0.00 0.00 0.00 89 1016.7
20260509135439 50 86 1.0 3.0 0.00 0.00 0.00 88 1016.8
20260509134936 50 141 2.0 3.0 0.00 0.00 0.00 88 1016.4
20260509134434 50 116 0.0 2.0 0.00 0.00 0.00 89 1016.7
20260509133931 50 189 1.0 2.0 0.00 0.00 0.00 90 1016.3
20260509133427 50 273 1.0 3.0 0.00 0.00 0.00 89 1016.5
20260509132926 50 42 0.0 3.0 0.00 0.00 0.00 89 1016.4
20260509132423 50 108 1.0 2.0 0.00 0.00 0.00 89 1016.5
20260509131920 50 54 1.0 2.0 0.00 0.00 0.00 89 1016.3
20260509131418 50 297 2.0 2.0 0.00 0.00 0.00 89 1016.2
20260509130914 50 345 0.0 2.0 0.00 0.00 0.00 88 1016.4
20260509130409 50 296 1.0 3.0 0.00 0.00 0.00 89 1016.4
20260509125907 50 162 0.0 2.0 0.00 0.00 0.00 89 1016.4
20260509125403 51 125 1.0 3.0 0.00 0.00 0.00 88 1016.4
20260509124859 51 287 0.0 2.0 0.00 0.00 0.00 88 1016.7
20260509124356 51 242 0.0 3.0 0.00 0.00 0.00 88 1016.2
20260509123854 51 45 0.0 3.0 0.00 0.00 0.00 87 1016.4
20260509123351 51 262 1.0 5.0 0.00 0.00 0.00 88 1016.3
20260509122847 51 132 1.0 3.0 0.00 0.00 0.00 88 1016.4
20260509122344 51 63 1.0 3.0 0.00 0.00 0.00 87 1016.3
20260509121841 51 308 1.0 4.0 0.00 0.00 0.00 88 1016.4
20260509121338 51 231 2.0 5.0 0.00 0.00 0.00 88 1016.5
20260509120836 52 310 0.0 4.0 0.00 0.00 0.00 87 1016.5
20260509120333 52 50 0.0 3.0 0.00 0.00 0.00 86 1016.7
20260509115831 52 247 2.0 3.0 0.00 0.00 0.00 86 1016.4
20260509115328 53 306 0.0 3.0 0.00 0.00 0.00 85 1016.4
20260509114826 52 29 0.0 5.0 0.00 0.00 0.00 85 1016.5
20260509114325 52 241 1.0 3.0 0.00 0.00 0.00 87 1016.5
20260509113824 52 50 0.0 2.0 0.00 0.00 0.00 86 1016.4
20260509113320 52 124 1.0 3.0 0.00 0.00 0.00 87 1016.4
20260509112817 52 187 2.0 4.0 0.00 0.00 0.00 88 1016.5
20260509112314 53 65 1.0 2.0 0.00 0.00 0.00 87 1016.7
20260509111811 53 3 0.0 4.0 0.00 0.00 0.00 87 1016.7
20260509111308 52 277 2.0 2.0 0.00 0.00 0.00 87 1016.8
20260509110805 52 246 0.0 3.0 0.00 0.00 0.00 88 1016.8
20260509110301 52 245 1.0 2.0 0.00 0.00 0.00 89 1016.8
20260509105800 53 94 2.0 3.0 0.00 0.00 0.00 88 1016.5
20260509105258 52 7 1.0 3.0 0.00 0.00 0.00 89 1016.8
20260509104754 52 37 0.0 2.0 0.00 0.00 0.00 90 1016.8
20260509104251 52 37 0.0 2.0 0.00 0.00 0.00 90 1016.9
20260509103749 52 261 1.0 2.0 0.00 0.00 0.00 90 1016.8
20260509103246 52 306 0.0 1.0 0.00 0.00 0.00 90 1017.1
20260509102744 53 107 2.0 2.0 0.00 0.00 0.00 88 1016.7
20260509102241 53 263 0.0 3.0 0.00 0.00 0.00 87 1016.8
20260509101737 53 295 2.0 4.0 0.00 0.00 0.00 87 1016.8
20260509101233 53 132 1.0 2.0 0.00 0.00 0.00 88 1016.7
20260509100731 53 347 0.0 3.0 0.00 0.00 0.00 89 1016.8
20260509100228 54 66 3.0 5.0 0.00 0.00 0.00 87 1016.8
20260509095725 54 51 3.0 5.0 0.00 0.00 0.00 86 1016.8
20260509095222 54 25 3.0 4.0 0.00 0.00 0.00 86 1016.8
20260509094719 53 282 2.0 4.0 0.00 0.00 0.00 89 1016.8
20260509094216 53 321 2.0 3.0 0.00 0.00 0.00 88 1016.9
20260509093714 54 129 0.0 2.0 0.00 0.00 0.00 87 1017.0
20260509093211 55 53 2.0 3.0 0.00 0.00 0.00 85 1017.0
20260509092709 54 305 2.0 3.0 0.00 0.00 0.00 88 1017.0
20260509092207 53 309 1.0 2.0 0.00 0.00 0.00 89 1016.9
20260509091705 54 100 0.0 3.0 0.00 0.00 0.00 88 1017.1
20260509091200 54 83 2.0 5.0 0.00 0.00 0.00 88 1017.0
20260509090658 54 302 0.0 3.0 0.00 0.00 0.00 87 1017.1
20260509090155 54 57 1.0 2.0 0.00 0.00 0.00 87 1017.1
20260509085653 54 205 0.0 3.0 0.00 0.00 0.00 87 1017.1
20260509085149 54 0 0.0 2.0 0.00 0.00 0.00 88 1017.2
20260509084646 55 91 1.0 3.0 0.00 0.00 0.00 87 1017.2
20260509084143 55 19 0.0 1.0 0.00 0.00 0.00 86 1017.1
20260509083641 55 280 1.0 2.0 0.00 0.00 0.00 87 1017.2
20260509083137 55 294 2.0 2.0 0.00 0.00 0.00 87 1017.2
20260509082634 55 38 2.0 3.0 0.00 0.00 0.00 87 1017.2
20260509082131 56 66 2.0 3.0 0.00 0.00 0.00 85 1017.3
20260509081628 56 309 3.0 5.0 0.00 0.00 0.00 85 1017.2
20260509081125 55 278 2.0 2.0 0.00 0.00 0.00 87 1017.3
20260509080623 56 51 1.0 4.0 0.00 0.00 0.00 87 1017.5